Tracking 31027 objects as of 19-Jul-2025
HD Live streaming from Space Station
objects crossing your sky now

STARLINK-3122

Track STARLINK-3122 now!
10-day predictions
STARLINK-3122 is classified as:


NORAD ID: 49445
Int'l Code: 2021-104AP
Perigee: 546.0 km
Apogee: 547.7 km
Inclination: 53.2 °
Period: 95.4 minutes
Semi major axis: 6917 km
RCS: Unknown
Launch date: November 13, 2021
Source: United States (US)
Launch site: AIR FORCE EASTERN TEST RANGE (AFETR)
Your satellite tracking list
IRIDIUM 134
Track 1 satellite(s)




NASA's NSSDC Master Catalog

Two Line Element Set (TLE):
1 49445U 21104AP  25199.70607761  .00000717  00000-0  63137-4 0  9993
2 49445  53.2167 189.9113 0001225  63.3449 296.7669 15.08842104203444
Source of the keplerian elements: AFSPC